DW9436 Weather Reports


Display with metric or nautical units.
time (UTC)temp
F
wind
direction
speed
MPH
gust
MPH
rain 1hr
in
rain 24hr
in
rain mn
in
humidity
%
barometer
mb
20210801081024 62 0 0.0 0.0 0.00 0.00 0.00 33 1027.7
20210801080527 63 0 0.0 0.0 0.00 0.00 0.00 33 1027.7
20210801080206 63 0 0.0 0.0 0.00 0.00 0.00 34 1027.7
20210801075524 63 0 0.0 1.0 0.00 0.00 0.00 33 1027.8
20210801075023 63 0 0.0 1.0 0.00 0.00 0.00 33 1027.7
20210801074547 63 0 0.0 1.0 0.00 0.00 0.00 32 1027.7
20210801074024 63 0 0.0 1.0 0.00 0.00 0.00 31 1027.7
20210801073610 64 0 0.0 1.0 0.00 0.00 0.00 31 1027.7
20210801073039 64 0 0.0 2.0 0.00 0.00 0.00 31 1027.8
20210801072523 64 0 0.0 2.0 0.00 0.00 0.00 31 1027.9
20210801072037 64 5 0.0 2.0 0.00 0.00 0.00 31 1027.9
20210801071548 64 0 0.0 1.0 0.00 0.00 0.00 31 1028.0
20210801071024 64 0 0.0 2.0 0.00 0.00 0.00 31 1027.9
20210801070524 64 0 0.0 2.0 0.00 0.00 0.00 31 1028.0
20210801070045 64 0 0.0 1.0 0.00 0.00 0.00 32 1028.0
20210801065528 64 5 0.0 1.0 0.00 0.00 0.00 32 1028.0
20210801065022 64 0 0.0 1.0 0.00 0.00 0.00 31 1028.0
20210801064605 64 0 0.0 1.0 0.00 0.00 0.00 31 1028.0
20210801064023 64 0 0.0 1.0 0.00 0.00 0.00 31 1028.0
20210801063523 64 5 0.0 1.0 0.00 0.00 0.00 31 1027.8
20210801063148 64 0 0.0 1.0 0.00 0.00 0.00 33 1028.0
20210801062524 64 0 0.0 1.0 0.00 0.00 0.00 34 1028.0
20210801062023 64 5 0.0 1.0 0.00 0.00 0.00 37 1028.1
20210801061540 64 0 0.0 0.0 0.00 0.00 0.00 37 1028.0
20210801061023 64 0 0.0 0.0 0.00 0.00 0.00 38 1027.9
20210801060533 65 0 0.0 0.0 0.00 0.00 0.00 36 1028.0
20210801060219 65 0 0.0 0.0 0.00 0.00 0.00 33 1028.1
20210801055527 65 0 0.0 0.0 0.00 0.00 0.00 33 1027.9
20210801055036 65 0 0.0 0.0 0.00 0.00 0.00 30 1028.0
20210801054641 65 0 0.0 0.0 0.00 0.00 0.00 30 1027.9
20210801054036 65 0 0.0 1.0 0.00 0.00 0.00 29 1028.0
20210801053523 66 0 0.0 1.0 0.00 0.00 0.00 29 1028.1
20210801053053 66 0 0.0 0.0 0.00 0.00 0.00 29 1028.1
20210801052524 66 0 0.0 0.0 0.00 0.00 0.00 28 1028.1
20210801052035 66 0 0.0 0.0 0.00 0.00 0.00 28 1028.1
20210801051623 67 0 0.0 0.0 0.00 0.00 0.00 28 1028.0
20210801051032 67 0 0.0 0.0 0.00 0.00 0.00 28 1028.1
20210801050526 67 0 0.0 0.0 0.00 0.00 0.00 28 1028.1
20210801050110 67 0 0.0 2.0 0.00 0.00 0.00 28 1028.2
20210801045523 67 0 0.0 2.0 0.00 0.00 0.00 28 1028.1
20210801045025 68 0 0.0 2.0 0.00 0.00 0.00 28 1027.9
20210801044650 68 5 0.0 2.0 0.00 0.00 0.00 27 1028.0
20210801044022 68 5 0.0 1.0 0.00 0.00 0.00 27 1027.9
20210801043522 68 0 0.0 0.0 0.00 0.00 0.00 27 1027.9
20210801043050 69 0 0.0 0.0 0.00 0.00 0.00 27 1027.8
20210801042541 69 0 0.0 2.0 0.00 0.00 0.00 27 1027.7
20210801042033 69 0 0.0 2.0 0.00 0.00 0.00 27 1027.7
20210801041549 69 5 0.0 2.0 0.00 0.00 0.00 26 1027.7
20210801041021 70 0 0.0 1.0 0.00 0.00 0.00 27 1027.6
20210801040526 70 0 0.0 1.0 0.00 0.00 0.00 27 1027.5
20210801040057 70 5 0.0 1.0 0.00 0.00 0.00 27 1027.4
20210801035539 70 5 0.0 2.0 0.00 0.00 0.00 28 1027.4
20210801035023 70 0 0.0 2.0 0.00 0.00 0.00 27 1027.3
20210801034613 70 0 0.0 1.0 0.00 0.00 0.00 27 1027.4
20210801034045 71 0 0.0 1.0 0.00 0.00 0.00 27 1027.4
20210801033523 71 0 0.0 2.0 0.00 0.00 0.00 27 1027.3
20210801033208 71 0 0.0 2.0 0.00 0.00 0.00 26 1027.3
20210801032524 71 0 0.0 2.0 0.00 0.00 0.00 27 1027.2
20210801032023 71 0 0.0 2.0 0.00 0.00 0.00 27 1027.3
20210801031538 71 9 0.0 2.0 0.00 0.00 0.00 26 1027.1
20210801031024 71 0 0.0 2.0 0.00 0.00 0.00 26 1027.1
20210801030523 72 0 0.0 1.0 0.00 0.00 0.00 26 1027.0
20210801030108 72 0 0.0 3.0 0.00 0.00 0.00 26 1026.9
20210801025523 72 146 1.0 3.0 0.00 0.00 0.00 26 1026.9
20210801025023 72 159 0.0 3.0 0.00 0.00 0.00 26 1027.0
20210801024546 72 317 0.0 4.0 0.00 0.00 0.00 26 1026.9
20210801024023 72 317 1.0 4.0 0.00 0.00 0.00 26 1026.9
20210801024019 73 317 1.0 4.0 0.00 0.00 0.00 27 1026.0
20210801023523 72 0 0.0 7.0 0.00 0.00 0.00 26 1026.9
20210801023104 73 325 1.0 7.0 0.00 0.00 0.00 25 1026.9
20210801022524 73 313 1.0 8.0 0.00 0.00 0.00 26 1026.9
20210801022041 73 38 1.0 8.0 0.00 0.00 0.00 26 1026.9
20210801021548 73 112 1.0 4.0 0.00 0.00 0.00 26 1026.8
20210801021032 73 173 1.0 4.0 0.00 0.00 0.00 26 1026.7
20210801020524 73 172 1.0 4.0 0.00 0.00 0.00 26 1026.7
20210801020156 73 344 0.0 5.0 0.00 0.00 0.00 26 1026.7
20210801015531 73 184 1.0 7.0 0.00 0.00 0.00 25 1026.5
20210801015024 73 188 2.0 7.0 0.00 0.00 0.00 25 1026.6
20210801014601 73 216 1.0 7.0 0.00 0.00 0.00 25 1026.5
20210801014020 73 190 1.0 6.0 0.00 0.00 0.00 25 1026.7
20210801013528 74 250 0.0 6.0 0.00 0.00 0.00 25 1026.6
20210801013040 74 214 1.0 6.0 0.00 0.00 0.00 25 1026.6
20210801012536 74 141 1.0 6.0 0.00 0.00 0.00 25 1026.6
20210801012023 74 173 2.0 5.0 0.00 0.00 0.00 25 1026.5
20210801011555 74 310 1.0 5.0 0.00 0.00 0.00 24 1026.6
20210801011034 74 38 1.0 5.0 0.00 0.00 0.00 24 1026.5
20210801010540 74 346 1.0 6.0 0.00 0.00 0.00 24 1026.6
20210801010111 74 202 1.0 9.0 0.00 0.00 0.00 25 1026.4
20210801005532 74 171 2.0 9.0 0.00 0.00 0.00 24 1026.4
20210801005034 75 196 1.0 7.0 0.00 0.00 0.00 25 1026.4
20210801004636 75 151 3.0 7.0 0.00 0.00 0.00 24 1026.3
20210801004023 75 112 1.0 7.0 0.00 0.00 0.00 25 1026.4
20210801003523 75 144 2.0 6.0 0.00 0.00 0.00 24 1026.3
20210801003042 75 142 1.0 9.0 0.00 0.00 0.00 25 1026.4
20210801002523 75 135 2.0 9.0 0.00 0.00 0.00 24 1026.5
20210801002026 75 15 2.0 8.0 0.00 0.00 0.00 24 1026.6
20210801001619 76 134 2.0 9.0 0.00 0.00 0.00 24 1026.5
20210801001022 76 178 3.0 9.0 0.00 0.00 0.00 25 1026.5
20210801000535 76 210 2.0 8.0 0.00 0.00 0.00 25 1026.6
20210801000050 77 167 4.0 10.0 0.00 0.00 0.00 24 1026.6
20210731235527 77 178 2.0 10.0 0.00 0.01 0.00 26 1026.5
20210731235027 77 173 1.0 6.0 0.00 0.01 0.00 27 1026.7
20210731234606 77 309 1.0 6.0 0.00 0.01 0.00 27 1026.5
20210731234024 77 278 2.0 9.0 0.00 0.01 0.00 27 1026.7
20210731233526 77 344 3.0 9.0 0.00 0.01 0.00 26 1026.7
20210731233052 77 309 3.0 7.0 0.00 0.01 0.00 27 1026.6
20210731232524 77 298 1.0 6.0 0.00 0.01 0.00 28 1026.8
20210731232023 77 350 2.0 7.0 0.00 0.01 0.00 29 1026.8
20210731231551 77 223 2.0 7.0 0.00 0.01 0.00 28 1026.8
20210731231022 77 0 1.0 5.0 0.00 0.01 0.00 29 1026.7
20210731230539 78 348 2.0 5.0 0.00 0.01 0.00 28 1026.7
20210731230054 78 337 2.0 8.0 0.00 0.01 0.00 28 1026.8
20210731225526 78 277 1.0 8.0 0.00 0.01 0.00 29 1026.7
20210731225027 79 313 1.0 7.0 0.00 0.01 0.00 28 1026.7
20210731224630 79 268 1.0 7.0 0.00 0.01 0.00 29 1026.7
20210731224032 79 196 1.0 5.0 0.00 0.01 0.00 30 1026.7
20210731223530 79 182 2.0 5.0 0.00 0.01 0.00 30 1026.7
20210731223116 80 319 2.0 8.0 0.00 0.01 0.00 30 1026.7
20210731222557 79 215 2.0 8.0 0.00 0.01 0.00 29 1026.7
20210731222024 79 337 2.0 6.0 0.00 0.01 0.00 31 1026.8
20210731221542 79 319 1.0 5.0 0.00 0.01 0.00 31 1026.7
20210731221023 79 0 1.0 8.0 0.00 0.01 0.00 30 1026.8
20210731220523 79 299 2.0 11.0 0.00 0.01 0.00 30 1026.8
20210731220043 79 198 3.0 11.0 0.00 0.01 0.00 31 1026.8
20210731215529 79 146 4.0 9.0 0.00 0.01 0.00 30 1026.9
20210731215034 79 159 4.0 9.0 0.00 0.01 0.00 31 1026.8
20210731214630 79 174 3.0 9.0 0.00 0.01 0.00 32 1026.8
20210731214038 77 322 3.0 8.0 0.00 0.01 0.00 34 1026.9
20210731213535 76 230 1.0 7.0 0.00 0.01 0.00 35 1027.0
20210731213142 76 322 1.0 6.0 0.00 0.01 0.00 34 1027.0
20210731212534 76 309 2.0 5.0 0.00 0.01 0.00 34 1027.1
20210731212026 77 303 1.0 6.0 0.00 0.01 0.00 33 1027.1
20210731211542 76 309 1.0 6.0 0.00 0.01 0.00 34 1027.1
20210731211026 76 315 1.0 5.0 0.00 0.01 0.00 34 1027.1
20210731210523 76 325 1.0 4.0 0.00 0.01 0.00 33 1027.2
20210731210030 76 275 1.0 4.0 0.00 0.01 0.00 34 1027.2
20210731205523 76 324 1.0 4.0 0.00 0.01 0.00 32 1027.1
20210731205032 76 179 1.0 8.0 0.00 0.01 0.00 33 1027.2
20210731204621 76 0 2.0 8.0 0.00 0.01 0.00 34 1027.2
20210731204026 77 187 2.0 6.0 0.00 0.01 0.00 33 1027.1
20210731203536 77 308 2.0 6.0 0.00 0.01 0.00 33 1027.1
20210731203058 77 351 0.0 7.0 0.00 0.01 0.00 34 1027.1
20210731202529 76 208 2.0 7.0 0.00 0.01 0.00 34 1027.1
20210731202025 76 198 2.0 7.0 0.00 0.01 0.00 34 1027.2
20210731201544 75 168 2.0 8.0 0.00 0.01 0.00 34 1027.2
20210731201024 75 307 2.0 8.0 0.00 0.01 0.00 34 1027.3
20210731200613 75 225 3.0 9.0 0.00 0.01 0.00 34 1027.1
20210731200150 76 176 2.0 10.0 0.00 0.01 0.00 33 1027.2
20210731195523 76 66 5.0 10.0 0.00 0.01 0.00 32 1027.1
20210731195023 77 178 1.0 8.0 0.00 0.01 0.00 33 1027.1
20210731194533 76 149 2.0 6.0 0.00 0.01 0.00 32 1027.2
20210731194027 76 0 1.0 6.0 0.00 0.01 0.00 33 1027.1
20210731193534 76 179 1.0 7.0 0.00 0.01 0.00 33 1027.3
20210731193036 76 352 1.0 7.0 0.00 0.01 0.00 35 1027.2
20210731192527 75 50 1.0 8.0 0.00 0.01 0.00 34 1027.1
20210731192026 74 186 1.0 8.0 0.00 0.01 0.00 36 1027.2
20210731191549 74 157 3.0 9.0 0.00 0.01 0.00 35 1027.3
20210731191032 74 173 4.0 9.0 0.00 0.01 0.00 35 1027.2
20210731190536 74 195 1.0 7.0 0.00 0.01 0.00 35 1027.3
20210731190120 74 200 3.0 7.0 0.00 0.01 0.00 35 1027.2
20210731185524 74 146 1.0 6.0 0.00 0.01 0.00 36 1027.3
20210731185034 74 335 1.0 8.0 0.00 0.01 0.00 36 1027.3
20210731184644 74 128 1.0 8.0 0.00 0.01 0.00 37 1027.3
20210731184025 74 180 3.0 9.0 0.00 0.01 0.00 36 1027.3
20210731183528 74 0 3.0 9.0 0.00 0.01 0.00 36 1027.3
20210731183123 74 144 1.0 5.0 0.00 0.01 0.00 37 1027.2
20210731182526 75 184 2.0 5.0 0.00 0.01 0.00 35 1027.3
20210731182034 75 187 1.0 6.0 0.00 0.01 0.00 35 1027.2
20210731181550 75 159 2.0 6.0 0.00 0.01 0.00 35 1027.1
20210731181035 75 203 2.0 6.0 0.00 0.01 0.00 37 1027.1
20210731180528 74 0 1.0 6.0 0.00 0.01 0.00 36 1027.1
20210731180114 74 184 1.0 6.0 0.00 0.01 0.00 37 1027.2
20210731175526 74 100 1.0 7.0 0.00 0.01 0.00 36 1027.2
20210731175025 73 157 2.0 7.0 0.00 0.01 0.00 38 1027.2
20210731174537 73 196 2.0 5.0 0.00 0.01 0.00 39 1027.3
20210731174035 72 211 1.0 4.0 0.00 0.01 0.00 39 1027.1
20210731173523 72 188 1.0 8.0 0.00 0.01 0.00 39 1027.2
20210731173042 72 144 2.0 8.0 0.00 0.01 0.00 40 1027.1
20210731172525 71 0 2.0 4.0 0.00 0.01 0.00 41 1027.1
20210731172023 71 167 1.0 4.0 0.00 0.01 0.00 44 1027.2
20210731171546 70 0 1.0 5.0 0.00 0.01 0.00 44 1027.2
20210731171033 70 182 1.0 5.0 0.00 0.01 0.00 45 1027.2
20210731170533 70 166 1.0 5.0 0.00 0.01 0.00 46 1027.2
20210731170032 70 167 2.0 5.0 0.00 0.01 0.00 45 1027.1
20210731165527 69 175 2.0 6.0 0.00 0.01 0.00 46 1027.2
20210731165025 69 171 2.0 6.0 0.00 0.01 0.00 46 1027.2
20210731164558 69 196 2.0 5.0 0.00 0.01 0.00 46 1027.2
20210731164025 68 166 2.0 4.0 0.00 0.01 0.00 48 1027.1
20210731163525 68 156 1.0 4.0 0.00 0.01 0.00 49 1027.0
20210731163113 68 161 1.0 4.0 0.00 0.01 0.00 50 1027.0
20210731162531 67 159 1.0 4.0 0.00 0.01 0.00 51 1027.1
20210731162023 66 168 1.0 5.0 0.00 0.01 0.00 52 1027.0
20210731161614 66 168 2.0 5.0 0.00 0.01 0.00 53 1027.1
20210731161023 66 182 1.0 3.0 0.00 0.01 0.00 54 1027.1
20210731160522 65 205 1.0 3.0 0.00 0.01 0.00 54 1027.2
20210731160039 65 205 0.0 2.0 0.00 0.01 0.00 57 1027.3
20210731155533 64 205 0.0 2.0 0.00 0.01 0.00 58 1027.2
20210731155027 64 205 1.0 2.0 0.00 0.01 0.00 59 1027.1
20210731154607 64 0 0.0 4.0 0.00 0.01 0.00 60 1027.0
20210731154024 64 205 1.0 4.0 0.00 0.01 0.00 59 1027.1
20210731153534 63 171 1.0 4.0 0.00 0.01 0.00 60 1027.0
20210731153049 63 171 0.0 2.0 0.00 0.01 0.00 60 1027.0
20210731152534 63 0 1.0 2.0 0.00 0.01 0.00 60 1027.1
20210731152023 63 171 1.0 2.0 0.00 0.01 0.00 58 1027.1
20210731151558 63 171 1.0 2.0 0.00 0.01 0.00 57 1026.9
20210731151023 63 171 0.0 2.0 0.00 0.01 0.00 56 1026.9
20210731150529 62 171 0.0 1.0 0.00 0.01 0.00 57 1026.8
20210731150048 62 0 0.0 1.0 0.00 0.01 0.00 60 1026.7
20210731145526 61 0 0.0 0.0 0.00 0.01 0.00 60 1026.7
20210731145026 61 0 0.0 0.0 0.00 0.01 0.00 65 1026.7
20210731144622 61 0 0.0 0.0 0.00 0.01 0.00 64 1026.6
20210731144040 61 0 0.0 0.0 0.00 0.01 0.00 64 1026.6
20210731143536 61 0 0.0 0.0 0.00 0.01 0.00 64 1026.4
20210731143106 61 0 0.0 0.0 0.00 0.01 0.00 63 1026.4
20210731142524 61 0 0.0 0.0 0.00 0.01 0.00 63 1026.4
20210731142025 61 0 0.0 0.0 0.00 0.01 0.00 62 1026.4
20210731141620 61 0 0.0 0.0 0.00 0.01 0.00 62 1026.2
20210731141023 61 0 0.0 0.0 0.00 0.01 0.00 62 1026.3
20210731140525 61 0 0.0 0.0 0.00 0.01 0.00 61 1026.2
20210731140050 61 0 0.0 0.0 0.00 0.01 0.00 60 1026.2
20210731135532 60 0 0.0 0.0 0.00 0.01 0.00 60 1026.2
20210731135025 60 0 0.0 0.0 0.00 0.01 0.00 59 1026.0
20210731134557 60 0 0.0 0.0 0.00 0.01 0.00 59 1025.9
20210731134025 60 0 0.0 0.0 0.00 0.01 0.00 59 1025.8
20210731133532 60 0 0.0 1.0 0.00 0.01 0.00 59 1025.8
20210731133045 60 0 0.0 1.0 0.00 0.01 0.00 60 1025.8
20210731132531 60 0 0.0 0.0 0.00 0.01 0.00 61 1025.7
20210731132024 60 0 0.0 0.0 0.00 0.01 0.00 62 1025.8
20210731131548 60 0 0.0 0.0 0.00 0.01 0.00 63 1025.8
20210731131026 60 0 0.0 0.0 0.00 0.01 0.00 63 1025.8
20210731130523 60 0 0.0 0.0 0.00 0.01 0.00 62 1025.8
20210731130048 60 0 0.0 1.0 0.00 0.01 0.00 63 1025.7
20210731125523 60 0 0.0 1.0 0.00 0.01 0.00 63 1025.6
20210731125034 60 171 0.0 1.0 0.00 0.01 0.00 63 1025.6
20210731124608 60 0 0.0 0.0 0.00 0.01 0.00 62 1025.4
20210731124052 60 0 0.0 0.0 0.00 0.01 0.00 62 1025.4
20210731123529 60 0 0.0 0.0 0.00 0.01 0.00 62 1025.4
20210731123111 61 0 0.0 0.0 0.00 0.01 0.00 61 1025.3
20210731122531 61 0 0.0 1.0 0.00 0.01 0.00 62 1025.2
20210731122023 61 0 0.0 1.0 0.00 0.01 0.00 62 1025.2
20210731121604 61 0 0.0 1.0 0.00 0.01 0.00 61 1025.3
20210731121024 61 0 0.0 1.0 0.00 0.01 0.00 61 1025.3
20210731120524 61 0 0.0 1.0 0.00 0.01 0.00 59 1025.2
20210731120026 61 0 0.0 1.0 0.00 0.01 0.00 57 1025.1
20210731115528 61 0 0.0 0.0 0.00 0.01 0.00 56 1025.2
20210731115029 61 0 0.0 1.0 0.00 0.01 0.00 55 1025.2
20210731114528 61 0 0.0 1.0 0.00 0.01 0.00 55 1025.4
20210731114025 61 0 0.0 0.0 0.00 0.01 0.00 55 1025.3
20210731113525 62 0 0.0 1.0 0.00 0.01 0.00 54 1025.2
20210731113150 62 0 0.0 1.0 0.00 0.01 0.00 54 1025.2
20210731112525 62 171 0.0 1.0 0.00 0.01 0.00 55 1025.2
20210731112024 62 0 0.0 0.0 0.00 0.01 0.00 54 1025.3
20210731111602 62 0 0.0 0.0 0.00 0.01 0.00 53 1025.4
20210731111024 62 0 0.0 0.0 0.00 0.01 0.00 53 1025.4
20210731110525 62 0 0.0 1.0 0.00 0.01 0.00 53 1025.5
20210731110058 62 0 0.0 1.0 0.00 0.01 0.00 53 1025.5
20210731105525 62 0 0.0 1.0 0.00 0.01 0.00 53 1025.5
20210731105023 62 171 0.0 0.0 0.00 0.01 0.00 53 1025.5
20210731104621 62 0 0.0 0.0 0.00 0.01 0.00 53 1025.3
20210731104024 63 0 0.0 0.0 0.00 0.01 0.00 53 1025.5
20210731103536 63 0 0.0 0.0 0.00 0.01 0.00 53 1025.4
20210731103105 63 0 0.0 1.0 0.00 0.01 0.00 54 1025.6
20210731102535 63 0 0.0 1.0 0.00 0.01 0.00 54 1025.4
20210731102028 63 0 0.0 1.0 0.00 0.01 0.00 55 1025.5
20210731101539 63 0 0.0 1.0 0.00 0.01 0.00 55 1025.5
20210731101023 63 0 0.0 1.0 0.00 0.01 0.00 55 1025.5
20210731100533 64 0 0.0 1.0 0.00 0.01 0.00 55 1025.6
20210731100039 64 0 0.0 1.0 0.00 0.01 0.00 54 1025.7
20210731095524 64 0 0.0 1.0 0.00 0.01 0.00 52 1025.6
20210731095025 64 0 0.0 1.0 0.00 0.01 0.00 51 1025.6
20210731094540 64 0 0.0 1.0 0.00 0.01 0.00 51 1025.6
20210731094032 64 0 0.0 1.0 0.00 0.01 0.00 51 1025.6
20210731093524 64 0 0.0 1.0 0.00 0.01 0.00 51 1025.6
20210731093125 64 0 0.0 1.0 0.00 0.01 0.00 51 1025.6
20210731092524 64 0 0.0 0.0 0.00 0.01 0.00 51 1025.7
20210731092024 64 0 0.0 0.0 0.00 0.01 0.00 51 1025.7
20210731091556 64 0 0.0 0.0 0.00 0.01 0.00 51 1025.8
20210731091040 64 0 0.0 0.0 0.00 0.01 0.00 50 1025.8
20210731090524 64 0 0.0 0.0 0.00 0.01 0.00 50 1025.8
20210731090045 64 0 0.0 1.0 0.00 0.01 0.00 50 1025.8
20210731085525 64 0 0.0 1.0 0.00 0.01 0.00 50 1025.8
20210731085031 64 0 0.0 2.0 0.00 0.01 0.00 51 1025.9
20210731084539 64 0 0.0 2.0 0.00 0.01 0.00 51 1025.9
20210731084037 64 171 1.0 2.0 0.00 0.01 0.00 51 1025.8
20210731083524 64 171 0.0 1.0 0.00 0.01 0.00 51 1025.9
20210731083045 64 0 0.0 0.0 0.00 0.01 0.00 51 1026.0
20210731082525 64 0 0.0 0.0 0.00 0.01 0.00 51 1026.0
20210731082056 65 0 0.0 0.0 0.00 0.01 0.00 52 1025.9
20210731081555 65 0 0.0 0.0 0.00 0.01 0.00 52 1026.0